Location: Hac?musa Deresi
(39.1694°N, 32.2508°E)
Time: 10:30:02
(UTC+00:00)

ADEOS - Pass Details

Date: 22 April 2026
Orbit: 789 x 792 km, 98.8° (Epoch: 20 May)

Event Time Altitude Azimuth Distance (km) Brightness Sun altitude
Exits shadow 18:25:50 29° 170° (S) 1,421 4.5 -20.0°
Maximum altitude 18:28:35 84° 257° (WSW) 801 3.5 -20.4°
Drops below altitude 10° 18:33:49 10° 345° (NNW) 2,364 6.7 -21.2°
Sets 18:36:09 0° 346° (NNW) 3,298 7.6 -21.6°
